• In Uzbekistan
  • List of Countries
  • For 7 days
  • Water Temperature
  • Satellite Maps
  • Weather Map
  • Weather Widgets
  • user-avatar
    Login

    Hourly Weather Cotia

    Today, 16 December, Saturday

    Time Temperature Precipitation Wind Pressure Humidity
    00:00 +22°C° 0.2 mm 1 mps 690 mmHg 81%
    01:00 +21°C° 0 mm 1 mps 689 mmHg 81%
    02:00 +21°C° 0 mm 1 mps 689 mmHg 81%
    03:00 +21°C° 0 mm 1 mps 689 mmHg 83%
    04:00 +21°C° 0 mm 1 mps 689 mmHg 82%
    05:00 +21°C° 0 mm 1 mps 690 mmHg 81%
    06:00 +19°C° 0 mm 0 mps 690 mmHg 81%
    07:00 +23°C° 0 mm 1 mps 691 mmHg 72%
    08:00 +26°C° 0 mm 1 mps 691 mmHg 62%
    09:00 +29°C° 0 mm 1 mps 692 mmHg 51%
    10:00 +30°C° 0 mm 1 mps 692 mmHg 48%
    11:00 +32°C° 0 mm 1 mps 692 mmHg 45%
    12:00 +33°C° 0 mm 1 mps 692 mmHg 41%
    13:00 +32°C° 0.1 mm 1 mps 691 mmHg 44%
    14:00 +31°C° 0.1 mm 2 mps 691 mmHg 48%
    15:00 +30°C° 0.1 mm 2 mps 690 mmHg 51%
    16:00 +29°C° 0 mm 2 mps 690 mmHg 55%
    17:00 +28°C° 0 mm 2 mps 690 mmHg 59%
    18:00 +27°C° 0 mm 2 mps 689 mmHg 63%
    19:00 +26°C° 0 mm 2 mps 689 mmHg 68%
    20:00 +25°C° 0 mm 2 mps 689 mmHg 73%
    21:00 +23°C° 0 mm 2 mps 689 mmHg 78%
    22:00 +23°C° 0 mm 2 mps 689 mmHg 78%
    23:00 +23°C° 0 mm 2 mps 689 mmHg 78%

    Tomorrow, 17 December, Sunday

    Time Temperature Precipitation Wind Pressure Humidity
    00:00 +21°C° 0 mm 2 mps 689 mmHg 79%
    01:00 +21°C° 0 mm 2 mps 689 mmHg 79%
    02:00 +21°C° 0 mm 2 mps 689 mmHg 80%
    03:00 +21°C° 0 mm 1 mps 688 mmHg 80%
    04:00 +21°C° 0 mm 2 mps 689 mmHg 79%
    05:00 +21°C° 0 mm 2 mps 689 mmHg 78%
    06:00 +21°C° 0 mm 2 mps 689 mmHg 77%
    07:00 +24°C° 0 mm 3 mps 690 mmHg 69%
    08:00 +26°C° 0 mm 3 mps 691 mmHg 60%
    09:00 +28°C° 0 mm 4 mps 692 mmHg 52%
    10:00 +30°C° 0 mm 4 mps 692 mmHg 49%
    11:00 +31°C° 0 mm 3 mps 692 mmHg 45%
    12:00 +33°C° 0 mm 3 mps 693 mmHg 42%
    13:00 +33°C° 0 mm 3 mps 692 mmHg 43%
    14:00 +33°C° 0 mm 3 mps 692 mmHg 44%
    15:00 +32°C° 0 mm 2 mps 691 mmHg 44%
    16:00 +31°C° 0 mm 2 mps 691 mmHg 48%
    17:00 +30°C° 0 mm 2 mps 691 mmHg 52%
    18:00 +29°C° 0 mm 2 mps 691 mmHg 56%
    19:00 +28°C° 0.1 mm 1 mps 691 mmHg 61%
    20:00 +26°C° 0.1 mm 1 mps 691 mmHg 67%
    21:00 +25°C° 0.1 mm 1 mps 691 mmHg 72%
    22:00 +25°C° 0 mm 1 mps 691 mmHg 74%
    23:00 +24°C° 0 mm 2 mps 691 mmHg 75%

    Day after tomorrow, 18 December, Monday

    Time Temperature Precipitation Wind Pressure Humidity
    00:00 +24°C° 0 mm 2 mps 691 mmHg 77%
    01:00 +24°C° 0 mm 2 mps 691 mmHg 77%
    02:00 +23°C° 0 mm 2 mps 690 mmHg 77%
    03:00 +23°C° 0 mm 2 mps 690 mmHg 77%
    04:00 +23°C° 0 mm 2 mps 690 mmHg 78%
    05:00 +23°C° 0 mm 2 mps 690 mmHg 78%
    06:00 +23°C° 0 mm 2 mps 691 mmHg 79%
    07:00 +25°C° 0 mm 2 mps 692 mmHg 70%
    08:00 +27°C° 0 mm 2 mps 692 mmHg 62%
    09:00 +29°C° 0 mm 3 mps 693 mmHg 53%
    10:00 +29°C° 0.3 mm 3 mps 693 mmHg 54%
    11:00 +30°C° 0.3 mm 3 mps 693 mmHg 54%
    12:00 +30°C° 0.3 mm 2 mps 693 mmHg 54%
    13:00 +30°C° 0.5 mm 2 mps 693 mmHg 58%
    14:00 +29°C° 0.5 mm 2 mps 692 mmHg 61%
    15:00 +28°C° 0.5 mm 2 mps 692 mmHg 64%
    16:00 +27°C° 1.1 mm 2 mps 692 mmHg 69%
    17:00 +26°C° 1.1 mm 2 mps 692 mmHg 74%
    18:00 +25°C° 1.1 mm 2 mps 692 mmHg 79%
    19:00 +24°C° 0.4 mm 2 mps 692 mmHg 82%
    20:00 +24°C° 0.4 mm 2 mps 692 mmHg 85%
    21:00 +23°C° 0.4 mm 2 mps 692 mmHg 88%
    22:00 +21°C° 0.2 mm 2 mps 692 mmHg 88%
    23:00 +21°C° 0.2 mm 2 mps 692 mmHg 89%

    19 December, Tuesday

    Time Temperature Precipitation Wind Pressure Humidity
    00:00 +21°C° 0.2 mm 2 mps 693 mmHg 90%
    01:00 +21°C° 0.1 mm 2 mps 692 mmHg 91%
    02:00 +21°C° 0.1 mm 2 mps 692 mmHg 91%
    03:00 +20°C° 0.1 mm 2 mps 691 mmHg 92%
    04:00 +21°C° 0 mm 1 mps 692 mmHg 92%
    05:00 +21°C° 0 mm 1 mps 692 mmHg 91%
    06:00 +21°C° 0 mm 1 mps 692 mmHg 91%
    07:00 +23°C° 0 mm 1 mps 693 mmHg 83%
    08:00 +25°C° 0 mm 1 mps 693 mmHg 76%
    09:00 +26°C° 0 mm 1 mps 694 mmHg 68%
    10:00 +27°C° 0.4 mm 1 mps 694 mmHg 65%
    11:00 +28°C° 0.4 mm 1 mps 693 mmHg 63%
    12:00 +29°C° 0.4 mm 1 mps 693 mmHg 60%
    13:00 +29°C° 1.4 mm 2 mps 692 mmHg 62%
    14:00 +29°C° 1.4 mm 2 mps 692 mmHg 64%
    15:00 +29°C° 1.4 mm 2 mps 691 mmHg 66%
    16:00 +27°C° 1.9 mm 2 mps 691 mmHg 70%
    17:00 +26°C° 1.9 mm 2 mps 691 mmHg 74%
    18:00 +25°C° 1.9 mm 3 mps 690 mmHg 78%
    19:00 +24°C° 0.3 mm 2 mps 691 mmHg 81%
    20:00 +23°C° 0.3 mm 2 mps 691 mmHg 84%
    21:00 +23°C° 0.3 mm 2 mps 691 mmHg 87%
    22:00 +21°C° 0.1 mm 2 mps 691 mmHg 88%
    23:00 +21°C° 0.1 mm 2 mps 691 mmHg 88%

    20 December, Wednesday

    Time Temperature Precipitation Wind Pressure Humidity
    00:00 +22°C° 0.1 mm 1 mps 691 mmHg 89%
    01:00 +22°C° 0.1 mm 1 mps 691 mmHg 89%
    02:00 +22°C° 0.1 mm 1 mps 690 mmHg 89%
    03:00 +22°C° 0.1 mm 1 mps 690 mmHg 89%
    04:00 +22°C° 0.3 mm 1 mps 690 mmHg 90%
    05:00 +22°C° 0.3 mm 1 mps 690 mmHg 90%
    06:00 +21°C° 0.3 mm 1 mps 690 mmHg 90%
    07:00 +22°C° 0.5 mm 1 mps 691 mmHg 86%
    08:00 +23°C° 0.5 mm 1 mps 691 mmHg 82%
    09:00 +24°C° 0.5 mm 1 mps 692 mmHg 78%
    10:00 +25°C° 0.7 mm 1 mps 691 mmHg 74%
    11:00 +26°C° 0.7 mm 2 mps 691 mmHg 71%
    12:00 +27°C° 0.7 mm 2 mps 691 mmHg 67%
    13:00 +27°C° 1.3 mm 2 mps 690 mmHg 69%
    14:00 +27°C° 1.3 mm 1 mps 690 mmHg 70%
    15:00 +26°C° 1.3 mm 1 mps 689 mmHg 72%
    16:00 +26°C° 1.1 mm 1 mps 689 mmHg 76%
    17:00 +25°C° 1.1 mm 1 mps 689 mmHg 79%
    18:00 +24°C° 1.1 mm 1 mps 689 mmHg 82%
    19:00 +23°C° 1.4 mm 1 mps 689 mmHg 83%
    20:00 +23°C° 1.4 mm 1 mps 689 mmHg 85%
    21:00 +22°C° 1.4 mm 1 mps 689 mmHg 86%
    22:00 +22°C° 1.7 mm 1 mps 689 mmHg 87%
    23:00 +22°C° 1.7 mm 1 mps 689 mmHg 88%

    21 December, Thursday

    Time Temperature Precipitation Wind Pressure Humidity
    00:00 +22°C° 1.7 mm 1 mps 689 mmHg 88%
    01:00 +21°C° 0.7 mm 1 mps 688 mmHg 89%
    02:00 +20°C° 0.7 mm 2 mps 688 mmHg 89%
    03:00 +20°C° 0.7 mm 2 mps 687 mmHg 89%
    04:00 +20°C° 0.4 mm 2 mps 687 mmHg 89%
    05:00 +20°C° 0.4 mm 2 mps 688 mmHg 89%
    06:00 +20°C° 0.4 mm 2 mps 688 mmHg 89%
    07:00 +20°C° 0.6 mm 2 mps 688 mmHg 88%
    08:00 +21°C° 0.6 mm 3 mps 688 mmHg 86%
    09:00 +21°C° 0.6 mm 3 mps 689 mmHg 85%
    10:00 +21°C° 0.7 mm 3 mps 689 mmHg 85%
    11:00 +21°C° 0.7 mm 3 mps 689 mmHg 85%
    12:00 +21°C° 0.7 mm 4 mps 688 mmHg 85%
    13:00 +21°C° 1.4 mm 3 mps 688 mmHg 85%
    14:00 +21°C° 1.4 mm 3 mps 688 mmHg 86%
    15:00 +21°C° 1.4 mm 3 mps 687 mmHg 87%
    16:00 +21°C° 0.8 mm 3 mps 687 mmHg 88%
    17:00 +21°C° 0.8 mm 3 mps 687 mmHg 88%
    18:00 +21°C° 0.8 mm 3 mps 687 mmHg 89%
    19:00 +21°C° 1.5 mm 3 mps 688 mmHg 90%
    20:00 +20°C° 1.5 mm 3 mps 688 mmHg 90%
    21:00 +20°C° 1.5 mm 3 mps 688 mmHg 91%
    22:00 +20°C° 1.2 mm 3 mps 688 mmHg 91%
    23:00 +20°C° 1.2 mm 3 mps 688 mmHg 91%
    Show more